Airfield :
LOGIN :

Register | Disclaimer

   EN    FR    IT 

 










Legend :    VFR   Marginal VFR   IFR   Intensive IFR   Very Intensive IFR
Visi :
Ceiling :
>= 8 km
>= 3000ft
5 to 8 km
1000 to 3000 ft
1500m to 5 km
500 to 1000 ft
800 to 1500m
200 to 500 ft
< 800m
< 200 ft
Symbols :   Thunderstorms  Fog  Heavy snow  Heavy precipitations  Wind > 20 kt
SIGMETs :     Misc.  Thunderstorms  Icing  Turbulence  Mountain Waves  Volcanic Ashes







- Airport Elevation : 135 ft
- IATA code : EDI
- Download approach charts


EGPH - Edinburgh

CURRENT METAR :
  • 290320Z 07009KT 9999 FEW014 BKN033 12/09 Q1017

EXPIRED METARs :
  • 290250Z 06009KT 9999 OVC032 12/08 Q1017
  • 290220Z 07009KT 9999 OVC031 12/08 Q1018
  • 290150Z 09008KT 9999 OVC030 13/07 Q1018
  • 290120Z 09011KT 9999 OVC029 13/07 Q1018

TAF TAF EGPH
Valid from the 29 at 00:00 until the 30 at 00:00 UTC


282258Z 2900/2924 07007KT 9999 SCT016
PROB30
TEMPO 2900/2911 8000 BKN014
TEMPO 2911/2924 6000 RA BKN014
PROB30
TEMPO 2918/2924 4000 RADZ BKN006
ATIS : +44 131 339 2823
No reported NOTAMs for that airfield.



MET'MAP, your aeronautical weather chart ! - Copyright ORBIFLY December 2007 - Disclaimer

ORBIFLY MET'MAP TEAM :

Programming & Development : Alexandra Zaïnal
Concept & Development : Baudouin d'Aumeries
Co-Development & Prog : Marc-Olivier Méhu
Technical & hardware support : Manuel Goepfert

Contact : metmap@orbifly.com




SOURCES & CREDITS :

   NOAA